Weather History for Oskaloosa, IA

Change the Weather History Date:

Tuesday, August 6, 2013

  Actual Average (KOTM) Record (KOTM)
Temperature  
Mean Temperature 76 °F 74 °F  
Max Temperature 88 °F 85 °F 111 °F (1934)
Min Temperature 64 °F 64 °F 45 °F (1903)
Degree Days  
Heating Degree Days 0 0  
Month to date heating degree days 0  
Since 1 June heating degree days 23  
Since 1 July heating degree days 2  
Cooling Degree Days 10 9  
Month to date cooling degree days 56  
Year to date cooling degree days 635  
Since 1 June cooling degree days 571  
Growing Degree Days 26 (Base 50)    
Moisture  
Dew Point 68 °F    
Average Humidity 79    
Maximum Humidity 95    
Minimum Humidity 51    
Precipitation  
Precipitation 0.12 in 0.14 in 1.94 in (1924)
Month to date precipitation 0.85  
Year to date precipitation 22.94  
Sea Level Pressure  
Sea Level Pressure 29.85 in    
Wind  
Wind Speed 3 mph (SSW)    
Max Wind Speed 25 mph    
Max Gust Speed 38 mph    
Visibility 8 miles    
Events Fog , Rain    
T = Trace of Precipitation, MM = Missing Value Source: NWS Daily Summary

Daily Weather History Graph

Daily Weather History Graph

Search for Another Location

Airport:

Trip Planner

Search our weather history database for the weather conditions in past years. The results will help you decide how hot, cold, wet, or windy it might be!

Date:

Astronomy

Aug. 06, 2013 Rise Set
Actual Time 6:10 AM CDT 8:20 PM CDT
Civil Twilight 5:40 AM CDT 8:50 PM CDT
Nautical Twilight 5:02 AM CDT 9:28 PM CDT
Astronomical Twilight 4:21 AM CDT 10:09 PM CDT
Moon 6:02 AM CDT (8/6) 7:54 PM CDT (8/6)
Length of Visible Light 15h 10m
Length of Day
14h 09m
Waning Crescent, 0% of the Moon is Illuminated
Aug 6
Waning Crescent
Aug 6
New
Aug 14
First Quarter
Aug 20
Full
Aug 28
Last Quarter

Hourly Weather History & Observations

Time (CDT) Temp. Heat Index Dew Point Humidity Pressure Visibility Wind Dir Wind Speed Gust Speed Precip Events Conditions
12:15 AM 69.4 °F - 67.1 °F 92% 29.88 in 7.0 mi South 3.5 mph - N/A   Mostly Cloudy
12:35 AM 69.4 °F - 67.1 °F 92% 29.88 in 7.0 mi South 3.5 mph - N/A   Mostly Cloudy
12:55 AM 69.1 °F - 66.7 °F 92% 29.88 in 5.0 mi South 3.5 mph - N/A   Scattered Clouds
1:15 AM 68.9 °F - 66.6 °F 92% 29.88 in 5.0 mi South 3.5 mph - N/A   Scattered Clouds
1:35 AM 68.9 °F - 66.6 °F 92% 29.88 in 5.0 mi Calm Calm - N/A   Mostly Cloudy
1:55 AM 68.5 °F - 66.4 °F 93% 29.87 in 5.0 mi Calm Calm - N/A   Mostly Cloudy
2:15 AM 69.1 °F - 67.1 °F 93% 29.87 in 5.0 mi Calm Calm - N/A   Mostly Cloudy
2:35 AM 68.5 °F - 66.4 °F 93% 29.86 in 5.0 mi Calm Calm - N/A   Scattered Clouds
2:55 AM 68.5 °F - 66.4 °F 93% 29.85 in 4.0 mi Calm Calm - N/A   Mostly Cloudy
3:15 AM 68.2 °F - 66.2 °F 93% 29.85 in 5.0 mi Calm Calm - N/A   Mostly Cloudy
3:35 AM 68.0 °F - 66.2 °F 94% 29.84 in 4.0 mi Calm Calm - N/A   Scattered Clouds
3:55 AM 67.5 °F - 65.5 °F 93% 29.84 in 4.0 mi Calm Calm - N/A   Mostly Cloudy
4:15 AM 68.2 °F - 66.2 °F 93% 29.84 in 4.0 mi Calm Calm - N/A   Overcast
4:35 AM 68.0 °F - 66.0 °F 93% 29.83 in 3.0 mi Calm Calm - N/A   Mostly Cloudy
4:55 AM 67.5 °F - 65.7 °F 94% 29.83 in 2.5 mi Calm Calm - N/A   Mostly Cloudy
5:15 AM 67.1 °F - 65.3 °F 94% 29.83 in 2.5 mi Calm Calm - N/A   Mostly Cloudy
5:35 AM 65.8 °F - 64.0 °F 94% 29.83 in 1.5 mi Calm Calm - N/A   Mist
5:55 AM 64.9 °F - 63.1 °F 94% 29.85 in 0.5 mi Calm Calm - N/A Fog Fog
6:15 AM 64.6 °F - 62.8 °F 94% 29.84 in 0.5 mi Calm Calm - N/A Fog Fog
6:35 AM 64.8 °F - 63.1 °F 94% 29.85 in 0.8 mi Calm Calm - N/A   Mist
6:55 AM 65.3 °F - 63.7 °F 94% 29.86 in 0.2 mi Calm Calm - N/A Fog Fog
7:15 AM 65.8 °F - 64.2 °F 94% 29.87 in 0.2 mi Calm Calm - N/A Fog Fog
7:35 AM 67.1 °F - 65.5 °F 95% 29.89 in 0.2 mi Calm Calm - N/A Fog Fog
7:55 AM 69.1 °F - 67.3 °F 94% 29.90 in 2.0 mi South 3.5 mph - N/A   Mostly Cloudy
8:15 AM 70.3 °F - 68.9 °F 95% 29.90 in 5.0 mi Calm Calm - N/A   Mostly Cloudy
8:35 AM 71.6 °F - 69.8 °F 94% 29.90 in 7.0 mi SSW 3.5 mph - N/A   Mostly Cloudy
8:55 AM 72.3 °F - 70.3 °F 93% 29.92 in 7.0 mi South 6.9 mph - N/A   Mostly Cloudy
9:15 AM 73.9 °F - 69.4 °F 86% 29.90 in 10.0 mi South 4.6 mph - N/A   Mostly Cloudy
9:35 AM 75.0 °F - 69.4 °F 83% 29.89 in 10.0 mi Calm Calm - N/A   Scattered Clouds
9:55 AM 75.9 °F - 70.0 °F 82% 29.90 in 7.0 mi Calm Calm - N/A   Clear
10:15 AM 77.0 °F - 70.5 °F 80% 29.90 in 10.0 mi SSW 3.5 mph - N/A   Mostly Cloudy
10:35 AM 77.5 °F - 70.7 °F 79% 29.89 in 10.0 mi SW 3.5 mph - N/A   Mostly Cloudy
10:55 AM 78.6 °F - 70.7 °F 77% 29.89 in 10.0 mi West 3.5 mph - N/A   Scattered Clouds
11:15 AM 78.4 °F - 70.5 °F 77% 29.89 in 10.0 mi WSW 3.5 mph - N/A   Clear
11:35 AM 81.0 °F 85.2 °F 72.0 °F 74% 29.89 in 10.0 mi WSW 4.6 mph - N/A   Clear
11:55 AM 81.7 °F 86.3 °F 71.8 °F 72% 29.88 in 10.0 mi WSW 3.5 mph - N/A   Scattered Clouds
12:15 PM 82.8 °F 87.7 °F 71.6 °F 69% 29.87 in 10.0 mi SW 5.8 mph - N/A   Scattered Clouds
12:35 PM 82.6 °F 87.1 °F 70.9 °F 68% 29.86 in 10.0 mi West 5.8 mph - N/A   Scattered Clouds
12:55 PM 83.3 °F 87.9 °F 71.1 °F 66% 29.85 in 10.0 mi WSW 4.6 mph - N/A   Scattered Clouds
1:15 PM 83.8 °F 88.9 °F 71.2 °F 66% 29.83 in 10.0 mi SSW 6.9 mph - N/A   Scattered Clouds
1:35 PM 82.9 °F 87.2 °F 70.5 °F 66% 29.82 in 10.0 mi South 5.8 mph - N/A   Scattered Clouds
1:55 PM 84.2 °F 88.1 °F 69.6 °F 61% 29.81 in 10.0 mi Calm Calm - N/A   Clear
2:15 PM 85.6 °F 90.1 °F 70.0 °F 59% 29.82 in 10.0 mi West 3.5 mph - N/A   Clear
2:35 PM 86.0 °F 90.7 °F 70.0 °F 59% 29.82 in 10.0 mi SW 5.8 mph - N/A   Scattered Clouds
2:55 PM 86.2 °F 90.4 °F 69.4 °F 57% 29.82 in 10.0 mi SW 6.9 mph - N/A   Clear
3:15 PM 86.7 °F 90.3 °F 68.4 °F 54% 29.82 in 10.0 mi South 4.6 mph - N/A   Clear
3:35 PM 86.9 °F 91.3 °F 69.4 °F 56% 29.82 in 10.0 mi South 4.6 mph - N/A   Clear
3:55 PM 87.3 °F 91.2 °F 68.5 °F 54% 29.82 in 10.0 mi SW 3.5 mph - N/A   Scattered Clouds
4:15 PM 87.8 °F 91.1 °F 67.5 °F 51% 29.82 in 10.0 mi SSW 3.5 mph - N/A   Clear
4:35 PM 87.8 °F 91.8 °F 68.7 °F 53% 29.83 in 10.0 mi SSW 4.6 mph - N/A   Clear
4:55 PM 87.1 °F 91.3 °F 69.3 °F 55% 29.82 in 10.0 mi Calm Calm - N/A   Scattered Clouds
5:15 PM 86.4 °F 90.4 °F 69.1 °F 56% 29.83 in 10.0 mi South 4.6 mph - N/A   Scattered Clouds
5:35 PM 86.5 °F 91.0 °F 69.4 °F 57% 29.83 in 10.0 mi Calm Calm - N/A   Scattered Clouds
5:55 PM 87.1 °F 91.3 °F 68.9 °F 55% 29.83 in 10.0 mi Calm Calm - N/A   Scattered Clouds
6:15 PM 86.7 °F 91.7 °F 70.3 °F 58% 29.82 in 10.0 mi Calm Calm - N/A   Clear
6:35 PM 86.7 °F 91.4 °F 69.8 °F 57% 29.81 in 10.0 mi Calm Calm - N/A   Clear
6:55 PM 84.0 °F 88.1 °F 69.8 °F 62% 29.80 in 10.0 mi Calm Calm - N/A   Clear
7:15 PM 82.4 °F 86.7 °F 70.9 °F 68% 29.82 in 10.0 mi ESE 3.5 mph - N/A   Clear
7:35 PM 82.4 °F 86.7 °F 70.7 °F 68% 29.82 in 10.0 mi SE 4.6 mph - N/A   Mostly Cloudy
7:55 PM 80.2 °F 83.0 °F 68.4 °F 67% 29.81 in 10.0 mi South 12.7 mph 17.3 mph N/A   Overcast
8:15 PM 75.6 °F - 66.0 °F 72% 29.83 in 10.0 mi SW 9.2 mph - N/A Rain Light Rain
8:35 PM 71.8 °F - 64.6 °F 78% 29.85 in 10.0 mi South 10.4 mph 16.1 mph N/A Rain Light Rain
8:55 PM 70.3 °F - 65.7 °F 85% 29.85 in 10.0 mi SSW 6.9 mph - N/A Rain Light Rain
9:15 PM 70.2 °F - 66.4 °F 88% 29.85 in 3.0 mi South 25.3 mph 38.0 mph 0.08 in Rain Heavy Rain
9:35 PM 69.1 °F - 63.1 °F 81% 29.86 in 10.0 mi SW 11.5 mph 29.9 mph 0.12 in Rain Light Rain
9:55 PM 69.3 °F - 64.0 °F 83% 29.83 in 10.0 mi West 4.6 mph - 0.12 in   Clear
10:15 PM 68.7 °F - 64.6 °F 87% 29.83 in 10.0 mi South 5.8 mph - N/A   Clear
10:35 PM 67.5 °F - 63.9 °F 88% 29.83 in 10.0 mi Calm Calm - N/A   Light Drizzle
10:55 PM 68.7 °F - 63.7 °F 84% 29.85 in 10.0 mi WSW 4.6 mph - N/A Rain Light Rain
11:15 PM 68.5 °F - 64.2 °F 86% 29.84 in 10.0 mi ENE 4.6 mph - N/A Rain Light Rain
11:35 PM 68.0 °F - 64.6 °F 89% 29.84 in 10.0 mi Calm Calm - N/A   Clear
11:55 PM 68.0 °F - 64.4 °F 88% 29.85 in 10.0 mi Calm Calm - N/A   Clear